Other Surface Observations
Issued by NWS

Home | Current Version | Previous Version | Text Only | Print | Product List | Glossary On
Versions: 1 2 3 4 5 6 7 8 9 10 11 12 13 14 15 16 17 18 19 20 21 22 23 24 25 26 27 28 29 30 31 32 33 34 35 36 37 38 39 40 41 42 43 44 45 46 47 48 49 50
000
SXUS52 KTAE 062010
OSOTAE
OSOTAE
North Florida/South Alabama/Southwest Georgia Weather Roundup
National Weather Service Tallahassee Florida
300 PM EST TUE DEC 06 2016

Note: "fair" indicates few or no clouds below 12,000 feet with no
significant weather and/or obstructions to visibility.

!FLZ017-115-028-034-025-062100
...North Florida...

CITY           SKY/WX    TMP DP  RH WIND       PRES   REMARKS
TALLAHASSEE    SUNNY     77  55  46 W12       29.80S
APALACHICOLA   MOSUNNY   72  60  66 W20G26    29.85S
PERRY          SUNNY     77  60  56 W17G23    29.82R
CROSS CITY     SUNNY     75  63  64 W17G28    29.83S
JACKSONVILLE   MOSUNNY   83  62  49 SW17      29.75R
$$

!FLZ112-006-005-002-011-062100
...Florida Panhandle...

CITY           SKY/WX    TMP DP  RH WIND       PRES   REMARKS
MARIANNA       SUNNY     73  57  57 W15G23    29.82R
BONIFAY        FAIR      70  57  63 W8        29.84R
PANAMA CITY NW FAIR      70  56  61 W12       29.84R
TYNDALL AFB    NOT AVBL
TYND DRONE APT NOT AVBL
DE FUNIAK SPR  NOT AVBL
EGLIN AFB      NOT AVBL
DESTIN         SUNNY     70  56  61 VRB7      29.86S
HURLBURT       NOT AVBL
CRESTVIEW      PTSUNNY   66  54  65 W9        29.87S
PENSACOLA      MOSUNNY   67  54  63 W9        29.87S
$$

!ALZ063-066-062100
...South Alabama...

CITY           SKY/WX    TMP DP  RH WIND       PRES   REMARKS
DOTHAN         MOSUNNY   68  57  68 W15       29.86R
OZARK CAIRNS   NOT AVBL
FT RUCKER HELI CLOUDY    67  55  65 W12       29.83R
RUCKER HELI 3  NOT AVBL
RUCKER HELI 2  NOT AVBL
FLORALA APT    NOT AVBL
ANDALUSIA      CLOUDY    68  53  58 W13G20    29.85R
TROY           CLOUDY    64  55  72 W9        29.84R
EUFALA         FAIR      71  56  58 W10G18    29.78R
MOBILE         MOSUNNY   66  52  60 W8        29.88F
$$

!GAZ120>161-062100
...Southwest and South Central Georgia...

CITY           SKY/WX    TMP DP  RH WIND       PRES   REMARKS
THOMASVILLE    FAIR      79  50  36 W13G23    29.79S
BAINBRIDGE     MOSUNNY   77  57  50 NW16      29.81R
MOODY AFB      NOT AVBL
VALDOSTA       SUNNY     80  52  37 W10G18    29.77R
MOULTRIE       SUNNY     77  50  38 W12G22    29.78S
BLAKELY        MOSUNNY   73  55  53 W13G23    29.81R
ALBANY         MOSUNNY   76  57  51 W15       29.79R
TIFTON         FAIR      76  53  43 W15G24    29.77R
FITZGERALD     NOT AVBL
CORDELE        NOT AVBL
AMERICUS       MOCLDY    72  50  46 W17G23    29.78S
HOMERVILLE     FAIR      81  54  39 W13       29.75S
$$

!GMZ750-755-770-775-062100
...Coastal and Buoy Obs...

STATION/POSITION TIME  TEMP    WIND        PRES    VSBY  WAVE
                       AIR SEA DIR/SP/G                  HT/PER
                 (UTC) (F)     (DEG/KT/KT) (MB)    (MI)  (FT/S)
KEATON BEACH     NOT AVBL
CEDAR KEY        NOT AVBL
C TOWER          NOT AVBL
APALACHICOLA BUO 1950   75 75  280/ 17/ 21 1010.8F         6/ 7
PANAMA CITY BUOY 1850   76 75              1011.5          9/ 7
MOBILE BUOY      1950   62 74  300/ 16/ 21 1012.9F         4/ 7
ORANGE BCH AL BU 1950   62 69  290/ 10/ 14 1012.0R         6/ 7
$$




USA.gov is the U.S. government's official web portal to all federal, state and local government web resources and services.